Location: Banska Bystrica
(0.0000°N, 19.1500°E)
Time: 22:05:33
(UTC+02:00)

CSL-04 Debris - Pass Details

Date: 19 February 2019
Orbit: 828 x 848 km, 99.0° (Epoch: 20 October)

Event Time Altitude Azimuth Distance (km) Brightness Sun altitude
Rises 18:19:47 0° 167° (SSE) 3,381 7.3 -5.5°
Reaches altitude 10° 18:22:08 10° 167° (SSE) 2,448 6.6 -6.1°
Maximum altitude 18:27:35 88° 78° (ENE) 843 4.2 -7.4°
Drops below altitude 10° 18:33:02 10° 348° (NNW) 2,452 6.6 -8.8°
Sets 18:35:23 0° 348° (NNW) 3,386 7.4 -9.4°
